This is the latest recevied weather packets stored in our database for station/object KC0SIQ-13. If no packets are shown the sender has not sent any weather packets the latest 10 day(s).
| Time | Temp. | Humidity | Pressure | Rain* | Wind** | Luminosity | Snow |
|---|---|---|---|---|---|---|---|
| 1777780577 | 10.56° C | 29% | 1014.8 hPa | 0 mm | - | 0 W/m² | - |
| 1777780275 | 11.11° C | 27% | 1014.6 hPa | 0 mm | - | 0 W/m² | - |
| 1777779972 | 11.11° C | 26% | 1014.8 hPa | 0 mm | - | 0 W/m² | - |
| 1777779670 | 11.67° C | 25% | 1014.6 hPa | 0 mm | - | 0 W/m² | - |
| 1777779367 | 12.22° C | 24% | 1014.6 hPa | 0 mm | - | 0 W/m² | - |
| 1777779064 | 12.22° C | 24% | 1014.5 hPa | 0 mm | - | 0 W/m² | - |
| 1777778763 | 12.78° C | 23% | 1014.6 hPa | 0 mm | - | 0 W/m² | - |
| 1777778460 | 12.78° C | 23% | 1014.4 hPa | 0 mm | - | 0 W/m² | - |
| 1777778158 | 12.78° C | 23% | 1014.6 hPa | 0 mm | - | 0 W/m² | - |
| 1777777855 | 12.78° C | 23% | 1014.5 hPa | 0 mm | - | 0 W/m² | - |
| 1777777551 | 12.22° C | 25% | 1014.5 hPa | 0 mm | - | 0 W/m² | - |
| 1777777248 | 11.67° C | 27% | 1014.6 hPa | 0 mm | - | 0 W/m² | - |
| 1777776945 | 12.22° C | 27% | 1014.4 hPa | 0 mm | - | 0 W/m² | - |
| 1777776643 | 12.22° C | 26% | 1014.6 hPa | 0 mm | - | 0 W/m² | - |
| 1777776338 | 12.22° C | 26% | 1014.6 hPa | 0 mm | - | 0 W/m² | - |
| 1777776036 | 12.78° C | 26% | 1014.6 hPa | 0 mm | - | 0 W/m² | - |
| 1777775733 | 12.78° C | 24% | 1014.4 hPa | 0 mm | - | 0 W/m² | - |
| 1777775430 | 13.33° C | 24% | 1014.1 hPa | 0 mm | - | 0 W/m² | - |
| 1777775127 | 13.89° C | 24% | 1014.2 hPa | 0 mm | - | 0 W/m² | - |
| 1777774827 | 14.44° C | 23% | 1014.2 hPa | 0 mm | - | 0 W/m² | - |
| 1777774524 | 15° C | 21% | 1014.4 hPa | 0 mm | - | 0 W/m² | - |
| 1777774221 | 15.56° C | 21% | 1014.4 hPa | 0 mm | - | 0 W/m² | - |
| 1777773918 | 16.11° C | 20% | 1014 hPa | 0 mm | - | 0 W/m² | - |
| 1777773615 | 16.67° C | 19% | 1014.1 hPa | 0 mm | - | 0 W/m² | - |
| 1777773312 | 17.22° C | 18% | 1014.4 hPa | 0 mm | - | 1 W/m² | - |
* Rain latest hour (hover to see other rain measurements)
** Current wind speed in m/s (hover to see current wind gust speed)